Location: Newark
(48.8604°N, 2.3376°E)
Time: 14:43:12
(UTC+00:00)

N. Korean satellite - Pass Details

Date: 26 September 2021
Orbit: 450 x 495 km, 97.3° (Epoch: 19 October)

Event Time Altitude Azimuth Distance (km) Brightness Sun altitude
Rises 04:35:45 0° 22° (NNE) 2,528 10.7 -11.8°
Reaches altitude 10° 04:38:00 10° 34° (NE) 1,654 9.9 -11.5°
Maximum altitude 04:41:09 29° 96° (E) 909 8.8 -11.0°
Drops below altitude 10° 04:44:18 10° 158° (SSE) 1,664 9.4 -10.4°
Sets 04:46:34 0° 170° (S) 2,546 10.2 -10.1°
